Showing default

GOES 14, 35491

Orbit data source: Space-Track

GOES 14, 35491 is a payload satellite owned by NOAA (US) in GEO that was launched on Sat, 27 Jun 2009 UTC via a DELTA 4M+(4,2) launch vehicle from the Air Force Eastern Test Range (AFETR). Payloads include a variety of satellites, spacecraft, and rockets equipped with specific instruments for various scientific and technological missions. These include communications satellites like Starlink; space stations such as the ISS; scientific satellites like the Hubble; Earth observation satellites from companies like Planet Labs, Umbra, and HawkEye 360; GPS; miniature CubeSats for education and research; and military/defense satellites.

Loading next visibility...
GOES 14 details
Identifier
35491, 2009-033A
Orbit
GEO
Last TLE update15 hours ago
Origin
Flag of USNOAA (US)
ManufacturerBoeing/ES
MissionOn reserve Civil Weather
Bus & MotorHS-601, R-4D?
Mass3,209 kg wet, 1,543 kg dry
Launch date (UTC)
2009-06-27 (15 years ago)
Launch vehicle
DELTA 4M+(4,2)
Launch site
Air Force Eastern Test Range (AFETR)
Object type
Payload
Rocket body
Debris
Shape & HBRBox + 1 Pan + 1 Ant, 8.2 m
Radar Cross Section14.281 m², Large (>1 m²)

Expand to show TLE details & history

TLE from 15 hours ago
0 GOES 14
1 35491U 09033A   24325.63111515 -.00000064  00000-0  00000-0 0  9997
2 35491   0.1921  91.8925 0003374 118.7672 328.1191  1.00272477   847
Epoch: 2024-11-20T15:08Z
Definitive object data (Epoch: 2024-11-20T15:08:48.348Z)
Latitude0.17569°
Longitude-108.58385°
Altitude35,773.796 km
Speed3.076 km/s
True Right ascension11h 54m 58s
True Declination0° 10' 32"
Sunlit
Object was in daylight at TLE epoch
Visualization TLE readout
Latitude-0.11286°
Longitude121.47491°
Altitude35,799.463 km
Speed3.074 km/s
Apparent Right ascension03h 13m 23s
Apparent Declination-6° 21' 23"
Sunlit
Object is in daylight
Visualization observer readout
Local Sidereal Time03:29:01
Azimuth185.366° SSW
Elevation43.587°
Doppler factor1
Orbital elements
Apogee altitude35,801.698 km
Perigee altitude35,773.245 km
Semi-major axis42,165.608 km
Eccentricity0.0003374
Inclination0.1921°
RAAN91.8925°
Arg. of periapsis118.7672°
True anomaly328.09867°
Mean anomaly328.1191°
Eccentric anomaly328.10889°
Mean motion0.25067 °/min
BSTARUnknown
Orbital period1436.14 mins
Loading historical data...
35491 neighbors
Authenticating...
Loading maneuver chart data...
Loading historical data...
Loading historical data...
Loading historical data...
Loading historical data...
Loading historical data...
Loading historical data...
Loading historical data...
Other satellites on launch #33 in the year 2009 (2009-06-27 UTC)

GOES 14 Visibility forecast

Observer location: undefined°, undefined

Span
Click to sort rows by Start time (UTC) header in descending order
Start Az.
Max El. time (UTC)
Max El. Az.
Max El.
End time (UTC)
End Az.
1440 mins2024-11-21 06:26:29.045Z185.364° SSW2024-11-21 15:36:29.045Z185.401° SSW34.733°2024-11-22 06:26:29.045Z185.361° SSW
|